This demonstration page uses our WeatherBlox Daily Observations layout. Learn more.

Left ArrowRight Arrow

38.88101, -77.10428

Hourly Observations for November 20, 2018

Temp ( °F °C ) Dew Point ( °F °C ) Humidity (%) Winds ( mph kmh ) Pressure ( in mb ) Visibility ( mi km ) Precip ( " mm )
12:52 am 00:52 Cloudy with Light Rain 50 10 46 7.8 86 86 SSE 3 6 29.89 1012 10 16.0934 0 0.0254
1:52 am 01:52 Cloudy 51 10.6 46 7.8 83 83 Calm 29.89 1012 10 16.0934 0 0.0254
2:52 am 02:52 Cloudy 49 9.4 46 7.8 90 90 SSW 5 7 29.89 1012 9 14.48406 0 0
3:52 am 03:52 Cloudy 49 9.4 46 7.8 90 90 SSW 5 7 29.88 1012 10 16.0934 0 0
4:52 am 04:52 Cloudy 48 8.9 45 7.2 89 89 S 8 13 29.89 1012 7 11.26538 0 0
5:52 am 05:52 Cloudy 49 9.4 46 7.8 90 90 W 3 6 29.91 1013 10 16.0934 0 0
6:52 am 06:52 Mostly Cloudy 50 10 42 5.6 74 74 NNW 10 17 29.92 1013 10 16.0934 0 0
7:52 am 07:52 Partly Cloudy 50 10 41 5 71 71 NNW 9 15 29.93 1014 10 16.0934 0 0
8:52 am 08:52 Mostly Cloudy 50 10 40 4.4 68 68 NW 12 19 29.95 1014 10 16.0934 0 0
9:52 am 09:52 Cloudy 51 10.6 39 3.9 64 64 N 10 17 29.97 1015 10 16.0934 0 0
10:52 am 10:52 Mostly Cloudy 54 12.2 39 3.9 57 57 NNW 9 15 29.98 1015 10 16.0934 0 0
11:52 am 11:52 Mostly Cloudy 55 12.8 37 2.8 51 51 NW 16 26 29.98 1015 10 16.0934 0 0
12:52 pm 12:52 Mostly Cloudy 53 11.7 34 1.1 48 48 NW 13 20 29.98 1015 10 16.0934 0 0
1:52 pm 13:52 Partly Cloudy 54 12.2 30 -1.1 40 40 NW 28 44 29.99 1016 10 16.0934 0 0
2:52 pm 14:52 Partly Cloudy 52 11.1 30 -1.1 43 43 NW 14 22 30.02 1017 10 16.0934 0 0
3:52 pm 15:52 Mostly Cloudy 51 10.6 30 -1.1 44 44 WNW 18 30 30.05 1018 10 16.0934 0 0
4:52 pm 16:52 Partly Cloudy 48 8.9 30 -1.1 50 50 W 14 22 30.08 1019 10 16.0934 0 0
5:52 pm 17:52 Mostly Clear 47 8.3 30 -1.1 52 52 NW 6 9 30.11 1020 10 16.0934 0 0
6:52 pm 18:52 Mostly Cloudy 46 7.8 29 -1.7 51 51 NW 16 26 30.14 1021 10 16.0934 0 0
7:52 pm 19:52 Mostly Cloudy 46 7.8 27 -2.8 47 47 NW 12 19 30.14 1021 10 16.0934 0 0
8:52 pm 20:52 Mostly Cloudy 44 6.7 27 -2.8 51 51 NW 9 15 30.16 1021 10 16.0934 0 0
9:52 pm 21:52 Cloudy 44 6.7 27 -2.8 51 51 NW 9 15 30.17 1022 10 16.0934 0 0
10:52 pm 22:52 Mostly Cloudy 44 6.7 26 -3.3 49 49 W 7 11 30.17 1022 10 16.0934 0 0
11:52 pm 23:52 Partly Cloudy 42 5.6 26 -3.3 53 53 WNW 8 13 30.16 1021 10 16.0934 0 0

Powered by AerisWeather